Tracking 21612 objects as of 20-Oct-2020
HD Live streaming from Space Station
objects crossing your sky now

TITAN 34B AGENA D R/B

Track TITAN 34B AGENA D R/B now!


NORAD ID: 14238
Int'l Code: 1983-078B
Perigee: 641.3 km
Apogee: 31,999.3 km
Inclination: 63.0 °
Period: 567.0 minutes
Semi major axis: 22691 km
RCS: Unknown
Launch date: July 31, 1983
Source: United States (US)
Launch site: AIR FORCE WESTERN TEST RANGE (AFWTR)

Note: This is a ROCKET BODY
aabbcc
Your satellite tracking list
Your tracking list is empty




NASA's NSSDC Master Catalog

Two Line Element Set (TLE):
1 14238U 83078B   20291.71404180 +.00000158 +00000-0 -21948-3 0  9995
2 14238 063.0118 158.6156 6909713 272.4361 016.8483 02.53988376010238
Source of the keplerian elements: AFSPC